Back to catalog

HAWK-C

AliveScienceSSO
NORAD 43799·PAYLOAD·🇺🇸 United States

Launched Dec 3, 2018 from Vandenberg Space Force Base

Loading…

Next Passes (next 24 hours)

TLE

FreshSource: Space-Track

Epoch: Sep 14, 2026, 14:32 UTC

1 43799U 18099AT  26257.60602723  .00006125  00000-0  21331-3 0  9994
2 43799  97.3792 310.0589 0038300 330.6146  29.2941 15.29336755427572

Track HAWK-C in real time with AllMySat

Download on the App Store